• En España
  • Lista de países
  • Para 7 días
  • Temperatura del agua
  • Mapa Satelital
  • El tiempo en el mapa
  • Informadores
  • user-avatar
    Iniciar sesión

    Tiempo cada hora Fier

    Hoy, 19 Julio, Jueves

    Tiempo Temperatura Precipitaciones Viento Presión Humedad
    00:00 +21°C° 0,1 mm 2 mps 757 mmHg 75%
    01:00 +21°C° 0,1 mm 2 mps 757 mmHg 75%
    02:00 +21°C° 0 mm 2 mps 757 mmHg 74%
    03:00 +21°C° 0 mm 2 mps 757 mmHg 74%
    04:00 +21°C° 0 mm 2 mps 757 mmHg 73%
    05:00 +23°C° 0 mm 2 mps 757 mmHg 67%
    06:00 +25°C° 0 mm 2 mps 757 mmHg 60%
    07:00 +27°C° 0 mm 2 mps 757 mmHg 54%
    08:00 +29°C° 0 mm 3 mps 757 mmHg 50%
    09:00 +30°C° 0 mm 3 mps 757 mmHg 46%
    10:00 +32°C° 0 mm 4 mps 757 mmHg 42%
    11:00 +33°C° 0 mm 5 mps 757 mmHg 41%
    12:00 +33°C° 0 mm 5 mps 757 mmHg 40%
    13:00 +34°C° 0 mm 6 mps 757 mmHg 39%
    14:00 +33°C° 0 mm 5 mps 757 mmHg 41%
    15:00 +33°C° 0 mm 5 mps 757 mmHg 43%
    16:00 +32°C° 0 mm 5 mps 757 mmHg 44%
    17:00 +30°C° 0 mm 5 mps 757 mmHg 52%
    18:00 +28°C° 0 mm 4 mps 757 mmHg 59%
    19:00 +26°C° 0 mm 3 mps 757 mmHg 67%
    20:00 +25°C° 0 mm 3 mps 757 mmHg 68%
    21:00 +24°C° 0 mm 2 mps 757 mmHg 70%
    22:00 +24°C° 0 mm 2 mps 758 mmHg 72%
    23:00 +24°C° 0 mm 2 mps 758 mmHg 72%

    Mañana, 20 Julio, Viernes

    Tiempo Temperatura Precipitaciones Viento Presión Humedad
    00:00 +23°C° 0 mm 2 mps 758 mmHg 72%
    01:00 +23°C° 0 mm 2 mps 758 mmHg 72%
    02:00 +23°C° 0 mm 2 mps 757 mmHg 72%
    03:00 +23°C° 0 mm 2 mps 757 mmHg 72%
    04:00 +23°C° 0 mm 2 mps 757 mmHg 72%
    05:00 +24°C° 0 mm 2 mps 757 mmHg 68%
    06:00 +26°C° 0 mm 2 mps 757 mmHg 63%
    07:00 +28°C° 0 mm 2 mps 757 mmHg 58%
    08:00 +29°C° 0 mm 2 mps 758 mmHg 54%
    09:00 +31°C° 0 mm 3 mps 758 mmHg 49%
    10:00 +33°C° 0 mm 3 mps 758 mmHg 44%
    11:00 +34°C° 0 mm 4 mps 758 mmHg 43%
    12:00 +34°C° 0 mm 4 mps 757 mmHg 42%
    13:00 +35°C° 0 mm 5 mps 757 mmHg 41%
    14:00 +34°C° 0 mm 5 mps 757 mmHg 42%
    15:00 +34°C° 0 mm 5 mps 757 mmHg 43%
    16:00 +34°C° 0 mm 5 mps 757 mmHg 45%
    17:00 +32°C° 0 mm 4 mps 757 mmHg 51%
    18:00 +29°C° 0 mm 4 mps 757 mmHg 57%
    19:00 +27°C° 0 mm 3 mps 757 mmHg 63%
    20:00 +26°C° 0 mm 3 mps 758 mmHg 64%
    21:00 +25°C° 0 mm 2 mps 758 mmHg 66%
    22:00 +25°C° 0 mm 2 mps 758 mmHg 67%
    23:00 +24°C° 0 mm 2 mps 758 mmHg 67%

    Pasado mañana, 21 Julio, Sábado

    Tiempo Temperatura Precipitaciones Viento Presión Humedad
    00:00 +24°C° 0 mm 2 mps 758 mmHg 67%
    01:00 +24°C° 0 mm 2 mps 758 mmHg 67%
    02:00 +24°C° 0 mm 2 mps 758 mmHg 67%
    03:00 +24°C° 0 mm 2 mps 758 mmHg 67%
    04:00 +23°C° 0 mm 2 mps 758 mmHg 67%
    05:00 +25°C° 0 mm 1 mps 758 mmHg 62%
    06:00 +27°C° 0 mm 1 mps 758 mmHg 56%
    07:00 +29°C° 0 mm 1 mps 758 mmHg 51%
    08:00 +30°C° 0 mm 1 mps 758 mmHg 46%
    09:00 +32°C° 0 mm 2 mps 758 mmHg 40%
    10:00 +34°C° 0 mm 2 mps 758 mmHg 35%
    11:00 +35°C° 0 mm 2 mps 758 mmHg 33%
    12:00 +36°C° 0 mm 3 mps 758 mmHg 32%
    13:00 +37°C° 0 mm 4 mps 758 mmHg 30%
    14:00 +36°C° 0 mm 3 mps 758 mmHg 32%
    15:00 +36°C° 0 mm 3 mps 758 mmHg 33%
    16:00 +36°C° 0 mm 3 mps 758 mmHg 35%
    17:00 +32°C° 0 mm 2 mps 758 mmHg 41%
    18:00 +30°C° 0 mm 1 mps 758 mmHg 48%
    19:00 +28°C° 0 mm 1 mps 758 mmHg 54%
    20:00 +27°C° 0 mm 1 mps 758 mmHg 54%
    21:00 +27°C° 0 mm 1 mps 758 mmHg 55%
    22:00 +26°C° 0 mm 2 mps 758 mmHg 56%
    23:00 +26°C° 0 mm 2 mps 758 mmHg 55%

    22 Julio, Domingo

    Tiempo Temperatura Precipitaciones Viento Presión Humedad
    00:00 +26°C° 0 mm 2 mps 758 mmHg 54%
    01:00 +26°C° 0 mm 2 mps 758 mmHg 53%
    02:00 +25°C° 0 mm 2 mps 757 mmHg 52%
    03:00 +25°C° 0 mm 3 mps 757 mmHg 50%
    04:00 +25°C° 0 mm 3 mps 757 mmHg 49%
    05:00 +27°C° 0 mm 3 mps 757 mmHg 48%
    06:00 +29°C° 0 mm 3 mps 757 mmHg 46%
    07:00 +31°C° 0 mm 3 mps 756 mmHg 45%
    08:00 +34°C° 0 mm 4 mps 756 mmHg 39%
    09:00 +36°C° 0 mm 4 mps 756 mmHg 34%
    10:00 +39°C° 0 mm 5 mps 756 mmHg 29%
    11:00 +39°C° 0 mm 5 mps 755 mmHg 28%
    12:00 +40°C° 0 mm 6 mps 755 mmHg 27%
    13:00 +41°C° 0 mm 7 mps 754 mmHg 26%
    14:00 +40°C° 0 mm 7 mps 754 mmHg 27%
    15:00 +40°C° 0 mm 7 mps 754 mmHg 29%
    16:00 +39°C° 0 mm 7 mps 753 mmHg 30%
    17:00 +36°C° 0 mm 7 mps 753 mmHg 37%
    18:00 +34°C° 0 mm 7 mps 753 mmHg 44%
    19:00 +30°C° 0 mm 7 mps 753 mmHg 51%
    20:00 +29°C° 0 mm 7 mps 753 mmHg 53%
    21:00 +29°C° 0 mm 7 mps 753 mmHg 56%
    22:00 +28°C° 0 mm 7 mps 753 mmHg 59%
    23:00 +27°C° 0 mm 6 mps 753 mmHg 63%

    23 Julio, Lunes

    Tiempo Temperatura Precipitaciones Viento Presión Humedad
    00:00 +26°C° 0 mm 5 mps 753 mmHg 66%
    01:00 +26°C° 0 mm 4 mps 753 mmHg 69%
    02:00 +25°C° 0,5 mm 4 mps 753 mmHg 75%
    03:00 +25°C° 0,5 mm 3 mps 753 mmHg 81%
    04:00 +24°C° 0,5 mm 3 mps 753 mmHg 86%
    05:00 +25°C° 0,3 mm 3 mps 753 mmHg 81%
    06:00 +26°C° 0,3 mm 2 mps 753 mmHg 76%
    07:00 +27°C° 0,3 mm 2 mps 753 mmHg 71%
    08:00 +28°C° 0,1 mm 2 mps 753 mmHg 65%
    09:00 +29°C° 0,1 mm 3 mps 753 mmHg 59%
    10:00 +30°C° 0,1 mm 4 mps 753 mmHg 52%
    11:00 +32°C° 0,2 mm 4 mps 752 mmHg 52%
    12:00 +32°C° 0,2 mm 4 mps 752 mmHg 52%
    13:00 +32°C° 0,2 mm 5 mps 752 mmHg 52%
    14:00 +32°C° 0,3 mm 5 mps 752 mmHg 52%
    15:00 +30°C° 0,3 mm 4 mps 752 mmHg 53%
    16:00 +30°C° 0,3 mm 4 mps 752 mmHg 54%
    17:00 +29°C° 0 mm 4 mps 752 mmHg 60%
    18:00 +27°C° 0 mm 3 mps 752 mmHg 67%
    19:00 +26°C° 0 mm 3 mps 752 mmHg 74%
    20:00 +25°C° 0,2 mm 3 mps 752 mmHg 78%
    21:00 +24°C° 0,2 mm 2 mps 752 mmHg 82%
    22:00 +23°C° 0,2 mm 2 mps 752 mmHg 86%
    23:00 +23°C° 0 mm 2 mps 752 mmHg 85%

    24 Julio, Martes

    Tiempo Temperatura Precipitaciones Viento Presión Humedad
    00:00 +23°C° 0 mm 2 mps 752 mmHg 85%
    01:00 +23°C° 0 mm 2 mps 752 mmHg 84%
    02:00 +23°C° 0 mm 2 mps 752 mmHg 83%
    03:00 +21°C° 0 mm 2 mps 752 mmHg 82%
    04:00 +21°C° 0 mm 2 mps 752 mmHg 81%
    05:00 +24°C° 0 mm 2 mps 752 mmHg 75%
    06:00 +25°C° 0 mm 2 mps 752 mmHg 69%
    07:00 +27°C° 0 mm 2 mps 752 mmHg 63%
    08:00 +29°C° 0 mm 2 mps 752 mmHg 57%
    09:00 +30°C° 0 mm 3 mps 752 mmHg 50%
    10:00 +33°C° 0 mm 3 mps 752 mmHg 44%
    11:00 +34°C° 0,1 mm 4 mps 752 mmHg 43%
    12:00 +34°C° 0,1 mm 5 mps 752 mmHg 42%
    13:00 +35°C° 0,1 mm 5 mps 752 mmHg 40%
    14:00 +34°C° 0,1 mm 5 mps 752 mmHg 43%
    15:00 +34°C° 0,1 mm 6 mps 753 mmHg 45%
    16:00 +33°C° 0,1 mm 6 mps 753 mmHg 48%
    17:00 +32°C° 0,3 mm 5 mps 753 mmHg 55%
    18:00 +29°C° 0,3 mm 5 mps 753 mmHg 62%
    19:00 +27°C° 0,3 mm 4 mps 754 mmHg 70%
    20:00 +27°C° 0,1 mm 4 mps 754 mmHg 72%
    21:00 +26°C° 0,1 mm 3 mps 754 mmHg 75%
    22:00 +25°C° 0,1 mm 3 mps 755 mmHg 78%
    23:00 +25°C° 0 mm 3 mps 755 mmHg 77%
    Mostrar más